09-11-2022, 12:30:10,    257,    3.0,   10.5,   0.00,   0.00, 1004.2,   65.4, -999.0
09-11-2022, 12:30:20,    199,    1.8,   10.5,   0.00,   0.00, 1004.3,   65.7, -999.0
09-11-2022, 12:30:30,    259,    1.7,   10.5,   0.00,   0.00, 1004.3,   65.7, -999.0
09-11-2022, 12:30:40,    273,    5.3,   10.5,   0.00,   0.00, 1004.3,   65.7, -999.0
09-11-2022, 12:30:50,    210,    4.7,   10.5,   0.00,   0.00, 1004.3,   65.5, -999.0
09-11-2022, 12:31:00,    254,    3.0,   10.5,   0.00,   0.00, 1004.3,   65.5, -999.0
09-11-2022, 12:31:10,    223,    4.3,   10.5,   0.00,   0.00, 1004.3,   65.4, -999.0
09-11-2022, 12:31:20,    252,    3.4,   10.5,   0.00,   0.00, 1004.4,   65.3, -999.0
09-11-2022, 12:31:30,    220,    0.9,   10.4,   0.00,   0.00, 1004.3,   65.3, -999.0
09-11-2022, 12:31:40,    218,    1.3,   10.4,   0.00,   0.00, 1004.3,   65.6, -999.0
09-11-2022, 12:31:50,    215,    0.1,   10.5,   0.00,   0.00, 1004.3,   65.5, -999.0
09-11-2022, 12:32:00,    230,    1.7,   10.5,   0.00,   0.00, 1004.4,   65.6, -999.0
09-11-2022, 12:32:10,    262,    2.4,   10.6,   0.00,   0.00, 1004.4,   65.6, -999.0
09-11-2022, 12:32:20,    275,    5.9,   10.6,   0.00,   0.00, 1004.4,   65.4, -999.0
09-11-2022, 12:32:30,    243,    3.1,   10.7,   0.00,   0.00, 1004.4,   65.2, -999.0
09-11-2022, 12:32:40,    217,    3.6,   10.7,   0.01,   0.00, 1004.4,   65.1, -999.0
09-11-2022, 12:32:50,    251,    3.8,   10.7,   0.00,   0.00, 1004.5,   65.1, -999.0
09-11-2022, 12:32:59,    255,    1.4,   10.7,   0.00,   0.00, 1004.4,   65.0, -999.0
09-11-2022, 12:33:10,    249,    2.4,   10.6,   0.00,   0.00, 1004.5,   65.1, -999.0
09-11-2022, 12:33:20,    239,    3.1,   10.7,   0.00,   0.00, 1004.5,   65.1, -999.0
09-11-2022, 12:33:29,    226,    4.0,   10.7,   0.00,   0.00, 1004.5,   64.9, -999.0
09-11-2022, 12:33:39,    234,    4.4,   10.6,   0.00,   0.00, 1004.5,   65.0, -999.0
09-11-2022, 12:33:50,    276,    3.9,   10.6,   0.00,   0.00, 1004.5,   65.1, -999.0
09-11-2022, 12:33:59,    253,    2.1,   10.7,   0.00,   0.00, 1004.5,   65.2, -999.0
09-11-2022, 12:34:09,    250,    3.8,   10.7,   0.00,   0.00, 1004.5,   65.2, -999.0
09-11-2022, 12:34:20,    241,    5.1,   10.7,   0.00,   0.00, 1004.5,   65.1, -999.0
09-11-2022, 12:34:29,    257,    4.3,   10.7,   0.00,   0.00, 1004.5,   65.0, -999.0
09-11-2022, 12:34:39,    245,    2.9,   10.6,   0.00,   0.00, 1004.5,   65.0, -999.0
09-11-2022, 12:34:49,    204,    1.8,   10.6,   0.00,   0.00, 1004.5,   65.1, -999.0
09-11-2022, 12:34:59,    262,    3.2,   10.6,   0.00,   0.00, 1004.5,   65.3, -999.0
09-11-2022, 12:35:09,    270,    5.2,   10.7,   0.00,   0.00, 1004.5,   65.1, -999.0
09-11-2022, 12:35:19,    260,    5.3,   10.6,   0.00,   0.00, 1004.5,   64.9, -999.0
09-11-2022, 12:35:29,    260,    3.4,   10.6,   0.00,   0.00, 1004.5,   65.0, -999.0
09-11-2022, 12:35:39,    233,    2.4,   10.6,   0.00,   0.00, 1004.5,   65.3, -999.0
09-11-2022, 12:35:49,    266,    1.4,   10.6,   0.00,   0.00, 1004.5,   65.5, -999.0
09-11-2022, 12:35:59,    248,    2.0,   10.7,   0.00,   0.00, 1004.5,   65.5, -999.0
09-11-2022, 12:36:09,    275,    4.0,   10.6,   0.00,   0.00, 1004.5,   65.5, -999.0
09-11-2022, 12:36:19,    174,    3.4,   10.6,   0.00,   0.00, 1004.5,   65.0, -999.0
09-11-2022, 12:36:29,    253,    3.5,   10.6,   0.00,   0.00, 1004.5,   65.1, -999.0
09-11-2022, 12:36:39,    278,    4.0,   10.6,   0.00,   0.00, 1004.5,   65.1, -999.0
09-11-2022, 12:36:49,    260,    4.6,   10.6,   0.00,   0.00, 1004.5,   65.0, -999.0
09-11-2022, 12:36:59,    231,    5.2,   10.5,   0.00,   0.00, 1004.5,   64.8, -999.0
09-11-2022, 12:37:09,    251,    2.1,   10.5,   0.00,   0.00, 1004.5,   65.0, -999.0
09-11-2022, 12:37:19,    244,    2.3,   10.4,   0.00,   0.00, 1004.5,   65.0, -999.0
09-11-2022, 12:37:29,    249,    5.9,   10.5,   0.00,   0.00, 1004.5,   65.2, -999.0
09-11-2022, 12:37:39,    260,    4.7,   10.5,   0.00,   0.00, 1004.5,   65.1, -999.0
09-11-2022, 12:37:49,    262,    2.8,   10.5,   0.00,   0.00, 1004.5,   65.2, -999.0
09-11-2022, 12:37:58,    250,    1.3,   10.5,   0.00,   0.00, 1004.5,   65.3, -999.0
09-11-2022, 12:38:09,    226,    4.5,   10.5,   0.00,   0.00, 1004.5,   65.5, -999.0
09-11-2022, 12:38:19,    231,    0.9,   10.6,   0.00,   0.00, 1004.6,   65.5, -999.0
09-11-2022, 12:38:28,    258,    2.9,   10.6,   0.00,   0.00, 1004.6,   65.6, -999.0
09-11-2022, 12:38:38,    241,    3.3,   10.6,   0.00,   0.00, 1004.6,   65.4, -999.0
09-11-2022, 12:38:49,    227,    0.5,   10.6,   0.00,   0.00, 1004.5,   65.3, -999.0
09-11-2022, 12:38:58,    227,    0.0,   10.6,   0.00,   0.00, 1004.4,   65.2, -999.0
09-11-2022, 12:39:08,    239,    0.6,   10.7,   0.01,   0.00, 1004.5,   65.6, -999.0
09-11-2022, 12:39:18,    239,    0.2,   10.8,   0.00,   0.00, 1004.4,   65.2, -999.0
09-11-2022, 12:39:28,    183,    1.2,   10.9,   0.00,   0.00, 1004.5,   65.2, -999.0
09-11-2022, 12:39:38,    268,    0.7,   10.8,   0.00,   0.00, 1004.5,   65.0, -999.0
09-11-2022, 12:39:48,    239,    1.5,   10.8,   0.00,   0.00, 1004.6,   65.1, -999.0
09-11-2022, 12:39:58,    245,    0.9,   10.9,   0.00,   0.00, 1004.6,   65.1, -999.0
09-11-2022, 12:40:08,    228,    3.0,   10.9,   0.00,   0.00, 1004.5,   64.9, -999.0
09-11-2022, 12:40:18,    240,    2.7,   10.8,   0.00,   0.00, 1004.5,   64.9, -999.0
09-11-2022, 12:40:28,    257,    3.7,   10.7,   0.00,   0.00, 1004.6,   64.9, -999.0
09-11-2022, 12:40:38,    274,    3.8,   10.8,   0.00,   0.00, 1004.5,   65.0, -999.0
09-11-2022, 12:40:48,    211,    4.3,   10.7,   0.00,   0.00, 1004.5,   65.1, -999.0
09-11-2022, 12:40:58,    234,    4.0,   10.7,   0.00,   0.00, 1004.5,   65.0, -999.0
09-11-2022, 12:41:08,    243,    2.7,   10.7,   0.00,   0.00, 1004.5,   64.9, -999.0
09-11-2022, 12:41:18,    253,    2.4,   10.6,   0.00,   0.00, 1004.5,   65.0, -999.0
09-11-2022, 12:41:28,    256,    3.6,   10.6,   0.00,   0.00, 1004.5,   65.2, -999.0
09-11-2022, 12:41:38,    211,    3.5,   10.6,   0.00,   0.00, 1004.5,   65.4, -999.0
09-11-2022, 12:41:48,    249,    3.4,   10.6,   0.00,   0.00, 1004.5,   65.1, -999.0
09-11-2022, 12:41:58,    232,    5.0,   10.5,   0.00,   0.00, 1004.5,   65.1, -999.0
09-11-2022, 12:42:08,    249,    3.7,   10.5,   0.00,   0.00, 1004.5,   65.2, -999.0
09-11-2022, 12:42:17,    286,    3.1,   10.5,   0.00,   0.00, 1004.5,   65.5, -999.0
09-11-2022, 12:42:28,    245,    2.8,   10.5,   0.00,   0.00, 1004.5,   65.6, -999.0
09-11-2022, 12:42:38,    235,    4.0,   10.5,   0.00,   0.00, 1004.5,   65.7, -999.0
09-11-2022, 12:42:48,    234,    2.9,   10.5,   0.00,   0.00, 1004.5,   65.7, -999.0
09-11-2022, 12:42:57,    188,    2.8,   10.4,   0.00,   0.00, 1004.5,   65.8, -999.0
09-11-2022, 12:43:08,    243,    3.2,   10.5,   0.00,   0.00, 1004.5,   65.7, -999.0
09-11-2022, 12:43:18,    259,    3.4,   10.5,   0.00,   0.00, 1004.5,   65.3, -999.0
09-11-2022, 12:43:27,    263,    2.4,   10.4,   0.00,   0.00, 1004.5,   65.6, -999.0
09-11-2022, 12:43:37,    272,    2.7,   10.5,   0.00,   0.00, 1004.6,   65.8, -999.0
09-11-2022, 12:43:48,    239,    2.2,   10.5,   0.00,   0.00, 1004.5,   65.7, -999.0
09-11-2022, 12:43:57,    256,    4.3,   10.4,   0.00,   0.00, 1004.5,   65.7, -999.0
09-11-2022, 12:44:07,    214,    2.4,   10.5,   0.00,   0.00, 1004.5,   65.9, -999.0
09-11-2022, 12:44:17,    244,    1.8,   10.5,   0.00,   0.00, 1004.5,   66.0, -999.0
09-11-2022, 12:44:27,    249,    3.3,   10.5,   0.00,   0.00, 1004.5,   65.9, -999.0
09-11-2022, 12:44:37,    226,    2.8,   10.5,   0.00,   0.00, 1004.5,   65.7, -999.0
09-11-2022, 12:44:47,    198,    2.6,   10.5,   0.00,   0.00, 1004.5,   65.7, -999.0
09-11-2022, 12:44:57,    300,    1.1,   10.5,   0.00,   0.00, 1004.5,   65.9, -999.0
09-11-2022, 12:45:07,    235,    2.8,   10.6,   0.00,   0.00, 1004.5,   66.0, -999.0
09-11-2022, 12:45:17,    194,    0.9,   10.5,   0.00,   0.00, 1004.5,   66.0, -999.0
09-11-2022, 12:45:27,    263,    0.3,   10.5,   0.00,   0.00, 1004.5,   66.0, -999.0
09-11-2022, 12:45:37,    290,    1.4,   10.6,   0.00,   0.00, 1004.5,   66.1, -999.0
09-11-2022, 12:45:47,    272,    3.6,   10.6,   0.00,   0.00, 1004.5,   66.0, -999.0
09-11-2022, 12:45:57,    242,    1.2,   10.6,   0.00,   0.00, 1004.5,   65.7, -999.0
09-11-2022, 12:46:07,    258,    0.7,   10.6,   0.00,   0.00, 1004.5,   66.0, -999.0
09-11-2022, 12:46:17,    213,    1.2,   10.6,   0.00,   0.00, 1004.5,   66.0, -999.0
09-11-2022, 12:46:27,    206,    0.1,   10.5,   0.00,   0.00, 1004.4,   65.7, -999.0
09-11-2022, 12:46:37,    247,    2.3,   10.7,   0.00,   0.00, 1004.5,   65.9, -999.0
09-11-2022, 12:46:47,    216,    1.2,   10.6,   0.00,   0.00, 1004.5,   65.8, -999.0
09-11-2022, 12:46:56,    216,    0.0,   10.5,   0.00,   0.00, 1004.5,   65.5, -999.0
09-11-2022, 12:47:07,    232,    0.0,   10.5,   0.00,   0.00, 1004.5,   65.7, -999.0
09-11-2022, 12:47:17,    207,    2.9,   10.6,   0.00,   0.00, 1004.5,   65.9, -999.0
09-11-2022, 12:47:26,    240,    1.5,   10.6,   0.00,   0.00, 1004.5,   65.7, -999.0
09-11-2022, 12:47:36,    184,    0.5,   10.6,   0.00,   0.00, 1004.5,   65.7, -999.0
09-11-2022, 12:47:47,    257,    2.2,   10.6,   0.00,   0.00, 1004.5,   65.9, -999.0
09-11-2022, 12:47:56,    209,    1.4,   10.6,   0.00,   0.00, 1004.6,   65.8, -999.0
09-11-2022, 12:48:06,    203,    0.4,   10.6,   0.00,   0.00, 1004.5,   65.8, -999.0
09-11-2022, 12:48:16,    224,    0.2,   10.6,   0.00,   0.00, 1004.6,   65.9, -999.0
09-11-2022, 12:48:26,    208,    0.4,   10.7,   0.00,   0.00, 1004.6,   66.0, -999.0
09-11-2022, 12:48:36,    214,    0.2,   10.6,   0.00,   0.00, 1004.5,   65.8, -999.0
09-11-2022, 12:48:46,    252,    2.3,   10.7,   0.00,   0.00, 1004.6,   65.9, -999.0
09-11-2022, 12:48:56,    209,    1.4,   10.6,   0.00,   0.00, 1004.5,   65.6, -999.0
09-11-2022, 12:49:06,    226,    2.8,   10.7,   0.00,   0.00, 1004.6,   65.5, -999.0
09-11-2022, 12:49:16,    279,    2.6,   10.7,   0.00,   0.00, 1004.6,   65.6, -999.0
09-11-2022, 12:49:26,    249,    2.6,   10.7,   0.00,   0.00, 1004.6,   65.6, -999.0
09-11-2022, 12:49:36,    268,    2.7,   10.7,   0.00,   0.00, 1004.6,   65.4, -999.0
09-11-2022, 12:49:46,    218,    3.8,   10.7,   0.00,   0.00, 1004.6,   65.4, -999.0
09-11-2022, 12:49:56,    244,    1.1,   10.7,   0.00,   0.00, 1004.6,   65.2, -999.0
09-11-2022, 12:50:06,    242,    0.4,   10.7,   0.00,   0.00, 1004.6,   65.3, -999.0
09-11-2022, 12:50:16,    223,    0.5,   10.7,   0.00,   0.00, 1004.6,   65.3, -999.0
09-11-2022, 12:50:26,    207,    1.7,   10.7,   0.00,   0.00, 1004.6,   65.3, -999.0
09-11-2022, 12:50:36,    240,    2.2,   10.7,   0.00,   0.00, 1004.7,   65.4, -999.0
09-11-2022, 12:50:46,    220,    3.1,   10.7,   0.00,   0.00, 1004.7,   65.4, -999.0
09-11-2022, 12:50:56,    245,    5.4,   10.6,   0.00,   0.00, 1004.6,   65.2, -999.0
09-11-2022, 12:51:06,    250,    4.9,   10.6,   0.00,   0.00, 1004.6,   65.2, -999.0
09-11-2022, 12:51:16,    247,    4.7,   10.6,   0.00,   0.00, 1004.7,   65.4, -999.0
09-11-2022, 12:51:25,    245,    4.6,   10.6,   0.00,   0.00, 1004.7,   65.5, -999.0
09-11-2022, 12:51:36,    255,    5.9,   10.6,   0.00,   0.00, 1004.7,   65.6, -999.0
09-11-2022, 12:51:46,    256,    3.2,   10.5,   0.00,   0.00, 1004.6,   65.6, -999.0
09-11-2022, 12:51:55,    225,    2.9,   10.5,   0.00,   0.00, 1004.6,   65.6, -999.0
09-11-2022, 12:52:05,    197,    1.6,   10.5,   0.00,   0.00, 1004.7,   65.7, -999.0
09-11-2022, 12:52:16,    258,    1.3,   10.6,   0.00,   0.00, 1004.7,   65.8, -999.0
09-11-2022, 12:52:25,    270,    2.1,   10.6,   0.00,   0.00, 1004.6,   65.8, -999.0
09-11-2022, 12:52:35,    244,    4.5,   10.7,   0.00,   0.00, 1004.6,   65.6, -999.0
09-11-2022, 12:52:45,    250,    5.5,   10.6,   0.00,   0.00, 1004.6,   65.2, -999.0
09-11-2022, 12:52:55,    242,    3.4,   10.6,   0.00,   0.00, 1004.6,   65.1, -999.0
09-11-2022, 12:53:05,    237,    2.7,   10.6,   0.00,   0.00, 1004.6,   65.4, -999.0
09-11-2022, 12:53:15,    220,    3.2,   10.7,   0.00,   0.00, 1004.7,   65.3, -999.0
09-11-2022, 12:53:25,    213,    4.0,   10.7,   0.00,   0.00, 1004.7,   65.4, -999.0
09-11-2022, 12:53:35,    217,    5.3,   10.7,   0.00,   0.00, 1004.6,   65.0, -999.0
09-11-2022, 12:53:45,    167,    3.6,   10.6,   0.00,   0.00, 1004.6,   64.9, -999.0
09-11-2022, 12:53:55,    207,    0.9,   10.7,   0.00,   0.00, 1004.6,   65.1, -999.0
09-11-2022, 12:54:05,    232,    1.6,   10.6,   0.01,   0.00, 1004.6,   65.0, -999.0
09-11-2022, 12:54:15,    192,    4.5,   10.7,   0.00,   0.00, 1004.7,   65.1, -999.0
09-11-2022, 12:54:25,    191,    1.3,   10.7,   0.00,   0.00, 1004.6,   65.0, -999.0
09-11-2022, 12:54:35,    228,    0.7,   10.8,   0.00,   0.00, 1004.6,   65.2, -999.0
09-11-2022, 12:54:45,    239,    5.1,   10.9,   0.00,   0.00, 1004.6,   65.2, -999.0
09-11-2022, 12:54:55,    192,    2.1,   10.8,   0.00,   0.00, 1004.7,   65.1, -999.0
09-11-2022, 12:55:05,    228,    1.7,   10.8,   0.00,   0.00, 1004.7,   65.1, -999.0
09-11-2022, 12:55:15,    257,    1.9,   10.8,   0.00,   0.00, 1004.7,   65.2, -999.0
09-11-2022, 12:55:25,    253,    2.0,   10.8,   0.00,   0.00, 1004.7,   65.1, -999.0
09-11-2022, 12:55:35,    258,    4.6,   10.8,   0.00,   0.00, 1004.6,   64.8, -999.0
09-11-2022, 12:55:45,    237,    2.7,   10.8,   0.01,   0.00, 1004.7,   64.6, -999.0
09-11-2022, 12:55:55,    229,    4.3,   10.8,   0.00,   0.00, 1004.7,   64.7, -999.0
09-11-2022, 12:56:05,    254,    3.1,   10.8,   0.00,   0.00, 1004.6,   64.7, -999.0
09-11-2022, 12:56:15,    277,    3.9,   10.8,   0.00,   0.00, 1004.7,   64.6, -999.0
09-11-2022, 12:56:24,    258,    2.3,   10.9,   0.01,   0.00, 1004.7,   64.6, -999.0
09-11-2022, 12:56:35,    225,    4.3,   10.9,   0.00,   0.00, 1004.7,   64.6, -999.0
09-11-2022, 12:56:45,    247,    4.9,   10.9,   0.00,   0.00, 1004.7,   64.4, -999.0
09-11-2022, 12:56:54,    255,    4.0,   10.9,   0.00,   0.00, 1004.7,   64.1, -999.0
09-11-2022, 12:57:04,    228,    4.0,   10.9,   0.00,   0.00, 1004.7,   64.2, -999.0
09-11-2022, 12:57:15,    192,    2.1,   10.9,   0.00,   0.00, 1004.7,   64.3, -999.0
09-11-2022, 12:57:24,    194,    3.4,   10.9,   0.00,   0.00, 1004.7,   64.3, -999.0
09-11-2022, 12:57:34,    220,    2.9,   10.8,   0.00,   0.00, 1004.7,   64.3, -999.0
09-11-2022, 12:57:44,    239,    1.3,   10.8,   0.00,   0.00, 1004.7,   64.6, -999.0
09-11-2022, 12:57:54,    158,    2.0,   10.9,   0.00,   0.00, 1004.6,   64.7, -999.0
09-11-2022, 12:58:04,    266,    2.1,   10.9,   0.00,   0.00, 1004.7,   64.8, -999.0
09-11-2022, 12:58:14,    152,    3.3,   10.9,   0.00,   0.00, 1004.7,   64.5, -999.0
09-11-2022, 12:58:24,    219,    1.0,   10.9,   0.00,   0.00, 1004.7,   64.6, -999.0
09-11-2022, 12:58:34,    239,    1.6,   10.9,   0.00,   0.00, 1004.6,   64.5, -999.0
09-11-2022, 12:58:44,    256,    3.2,   11.0,   0.00,   0.00, 1004.7,   64.2, -999.0
09-11-2022, 12:58:54,    252,    2.5,   11.0,   0.00,   0.00, 1004.7,   64.2, -999.0
09-11-2022, 12:59:04,    253,    1.9,   11.0,   0.00,   0.00, 1004.7,   64.2, -999.0
09-11-2022, 12:59:14,    234,    0.7,   11.0,   0.00,   0.00, 1004.6,   64.1, -999.0
09-11-2022, 12:59:24,    272,    1.2,   11.0,   0.00,   0.00, 1004.7,   64.3, -999.0
09-11-2022, 12:59:34,    208,    2.0,   11.1,   0.00,   0.00, 1004.7,   64.3, -999.0
09-11-2022, 12:59:44,    224,    1.3,   11.1,   0.00,   0.00, 1004.7,   64.2, -999.0
09-11-2022, 12:59:54,    228,    3.1,   11.0,   0.00,   0.00, 1004.7,   64.3, -999.0
09-11-2022, 13:00:04,    226,    2.1,   11.0,   0.00,   0.00, 1004.7,   64.3, -999.0
09-11-2022, 13:00:14,    236,    3.4,   10.9,   0.00,   0.00, 1004.7,   64.3, -999.0
09-11-2022, 13:00:24,    233,    3.9,   10.9,   0.00,   0.00, 1004.7,   64.4, -999.0
09-11-2022, 13:00:34,    236,    2.7,   10.9,   0.00,   0.00, 1004.7,   64.5, -999.0
09-11-2022, 13:00:44,    232,    1.2,   10.8,   0.00,   0.00, 1004.7,   64.5, -999.0
09-11-2022, 13:00:53,    232,    0.4,   10.8,   0.00,   0.00, 1004.7,   64.7, -999.0
09-11-2022, 13:01:04,    234,    0.8,   10.9,   0.00,   0.00, 1004.7,   64.9, -999.0
09-11-2022, 13:01:14,    234,    0.1,   10.9,   0.00,   0.00, 1004.7,   64.7, -999.0
09-11-2022, 13:01:23,    236,    1.5,   10.8,   0.00,   0.00, 1004.7,   64.7, -999.0
09-11-2022, 13:01:33,    198,    2.1,   10.9,   0.00,   0.00, 1004.7,   64.6, -999.0
09-11-2022, 13:01:44,    221,    1.7,   10.9,   0.00,   0.00, 1004.7,   64.6, -999.0
09-11-2022, 13:01:53,    243,    2.9,   10.8,   0.00,   0.00, 1004.8,   64.8, -999.0
09-11-2022, 13:02:03,    236,    3.2,   10.8,   0.00,   0.00, 1004.7,   64.8, -999.0
09-11-2022, 13:02:13,    232,    1.2,   10.9,   0.00,   0.00, 1004.8,   64.8, -999.0
09-11-2022, 13:02:23,    233,    4.5,   10.9,   0.00,   0.00, 1004.7,   64.8, -999.0
09-11-2022, 13:02:33,    242,    2.2,   10.8,   0.00,   0.00, 1004.7,   64.6, -999.0
09-11-2022, 13:02:43,    249,    4.0,   10.8,   0.00,   0.00, 1004.7,   65.0, -999.0
09-11-2022, 13:02:53,    194,    3.1,   10.8,   0.00,   0.00, 1004.7,   64.8, -999.0
09-11-2022, 13:03:03,    238,    2.2,   10.8,   0.00,   0.00, 1004.7,   64.8, -999.0
09-11-2022, 13:03:13,    224,    2.0,   10.8,   0.00,   0.00, 1004.7,   65.0, -999.0
09-11-2022, 13:03:23,    225,    0.7,   10.8,   0.00,   0.00, 1004.7,   65.0, -999.0
09-11-2022, 13:03:33,    225,    0.0,   10.8,   0.00,   0.00, 1004.6,   64.7, -999.0
09-11-2022, 13:03:43,    208,    0.6,   10.9,   0.00,   0.00, 1004.7,   64.9, -999.0
09-11-2022, 13:03:53,    207,    0.3,   11.0,   0.00,   0.00, 1004.7,   64.8, -999.0
09-11-2022, 13:04:03,    244,    0.8,   11.0,   0.00,   0.00, 1004.7,   64.7, -999.0
09-11-2022, 13:04:13,    225,    0.9,   11.0,   0.00,   0.00, 1004.7,   64.8, -999.0
09-11-2022, 13:04:23,    225,    0.2,   11.0,   0.00,   0.00, 1004.7,   64.4, -999.0
09-11-2022, 13:04:33,    238,    1.6,   11.1,   0.00,   0.00, 1004.7,   64.7, -999.0
09-11-2022, 13:04:43,    214,    1.6,   11.1,   0.00,   0.00, 1004.7,   64.4, -999.0
09-11-2022, 13:04:53,    211,    4.2,   11.2,   0.00,   0.00, 1004.7,   64.4, -999.0
09-11-2022, 13:05:03,    225,    4.2,   11.0,   0.00,   0.00, 1004.7,   64.4, -999.0
09-11-2022, 13:05:13,    229,    2.4,   11.1,   0.00,   0.00, 1004.7,   64.6, -999.0
09-11-2022, 13:05:22,    237,    3.3,   11.0,   0.00,   0.00, 1004.8,   64.7, -999.0
09-11-2022, 13:05:33,    237,    1.4,   11.0,   0.00,   0.00, 1004.7,   64.7, -999.0
09-11-2022, 13:05:43,    237,    1.7,   11.0,   0.00,   0.00, 1004.8,   64.6, -999.0
09-11-2022, 13:05:52,    231,    2.7,   11.0,   0.00,   0.00, 1004.8,   64.7, -999.0
09-11-2022, 13:06:03,    232,    1.1,   10.9,   0.00,   0.00, 1004.8,   64.7, -999.0
09-11-2022, 13:06:13,    248,    0.4,   10.9,   0.00,   0.00, 1004.7,   64.6, -999.0
09-11-2022, 13:06:22,    204,    3.0,   11.0,   0.00,   0.00, 1004.8,   64.8, -999.0
09-11-2022, 13:06:32,    257,    2.2,   11.1,   0.00,   0.00, 1004.8,   64.7, -999.0
09-11-2022, 13:06:43,    200,    1.3,   11.0,   0.00,   0.00, 1004.9,   64.7, -999.0
09-11-2022, 13:06:52,    199,    3.3,   11.0,   0.00,   0.00, 1004.8,   64.7, -999.0
09-11-2022, 13:07:02,    205,    3.0,   10.9,   0.00,   0.00, 1004.8,   64.3, -999.0
09-11-2022, 13:07:12,    185,    1.8,   10.9,   0.00,   0.00, 1004.8,   64.7, -999.0
09-11-2022, 13:07:22,    286,    0.6,   10.9,   0.00,   0.00, 1004.8,   64.7, -999.0
09-11-2022, 13:07:32,    245,    0.6,   10.8,   0.00,   0.00, 1004.8,   64.9, -999.0
09-11-2022, 13:07:42,    228,    2.3,   10.9,   0.00,   0.00, 1004.8,   65.0, -999.0
09-11-2022, 13:07:52,    199,    4.0,   10.9,   0.00,   0.00, 1004.8,   64.9, -999.0
09-11-2022, 13:08:02,    212,    2.1,   10.8,   0.00,   0.00, 1004.8,   64.9, -999.0
09-11-2022, 13:08:12,    214,    3.1,   10.8,   0.00,   0.00, 1004.8,   64.9, -999.0
09-11-2022, 13:08:22,    255,    1.5,   10.7,   0.00,   0.00, 1004.8,   65.0, -999.0
09-11-2022, 13:08:32,    239,    2.6,   10.8,   0.00,   0.00, 1004.8,   65.1, -999.0
09-11-2022, 13:08:42,    229,    1.1,   10.8,   0.00,   0.00, 1004.8,   65.2, -999.0
09-11-2022, 13:08:52,    194,    0.8,   10.8,   0.00,   0.00, 1004.9,   65.1, -999.0
09-11-2022, 13:09:02,    224,    1.4,   10.8,   0.00,   0.00, 1004.9,   65.3, -999.0
09-11-2022, 13:09:12,    288,    3.8,   10.7,   0.00,   0.00, 1004.8,   65.3, -999.0
09-11-2022, 13:09:22,    215,    2.8,   10.7,   0.00,   0.00, 1004.9,   65.2, -999.0
09-11-2022, 13:09:32,    268,    2.3,   10.7,   0.00,   0.00, 1004.9,   65.2, -999.0
09-11-2022, 13:09:42,    202,    3.0,   10.7,   0.00,   0.00, 1004.8,   65.3, -999.0
09-11-2022, 13:09:52,    193,    1.3,   10.7,   0.00,   0.00, 1004.8,   65.4, -999.0
09-11-2022, 13:10:02,    199,    1.5,   10.6,   0.00,   0.00, 1004.8,   65.6, -999.0
09-11-2022, 13:10:12,    285,    3.1,   10.7,   0.00,   0.00, 1004.8,   65.7, -999.0
09-11-2022, 13:10:21,    222,    2.2,   10.7,   0.00,   0.00, 1004.8,   65.7, -999.0
09-11-2022, 13:10:32,    263,    4.0,   10.7,   0.00,   0.00, 1004.9,   65.7, -999.0
09-11-2022, 13:10:42,    229,    3.4,   10.7,   0.00,   0.00, 1004.9,   65.6, -999.0
09-11-2022, 13:10:51,    242,    4.8,   10.6,   0.00,   0.00, 1004.9,   65.5, -999.0
09-11-2022, 13:11:01,    211,    4.5,   10.6,   0.00,   0.00, 1004.8,   65.4, -999.0
09-11-2022, 13:11:12,    201,    3.9,   10.6,   0.00,   0.00, 1004.8,   65.6, -999.0
09-11-2022, 13:11:21,    216,    5.2,   10.6,   0.00,   0.00, 1004.8,   65.7, -999.0
09-11-2022, 13:11:31,    215,    3.5,   10.5,   0.00,   0.00, 1004.9,   65.7, -999.0
09-11-2022, 13:11:41,    253,    4.5,   10.5,   0.00,   0.00, 1004.8,   66.0, -999.0
09-11-2022, 13:11:51,    256,    3.9,   10.6,   0.00,   0.00, 1004.9,   66.1, -999.0
09-11-2022, 13:12:01,    235,    3.2,   10.6,   0.00,   0.00, 1004.9,   66.1, -999.0
09-11-2022, 13:12:11,    281,    5.0,   10.6,   0.00,   0.00, 1004.9,   66.1, -999.0
09-11-2022, 13:12:21,    237,    3.1,   10.6,   0.00,   0.00, 1004.9,   66.2, -999.0
09-11-2022, 13:12:31,    215,    6.3,   10.6,   0.00,   0.00, 1004.9,   66.2, -999.0
09-11-2022, 13:12:41,    214,    4.0,   10.5,   0.00,   0.00, 1004.9,   66.2, -999.0
09-11-2022, 13:12:51,    213,    3.8,   10.5,   0.00,   0.00, 1004.9,   66.3, -999.0
09-11-2022, 13:13:01,    252,    4.4,   10.5,   0.00,   0.00, 1004.9,   66.5, -999.0
09-11-2022, 13:13:11,    207,    0.9,   10.4,   0.00,   0.00, 1004.8,   66.4, -999.0
09-11-2022, 13:13:21,    262,    1.6,   10.4,   0.00,   0.00, 1004.9,   66.6, -999.0
09-11-2022, 13:13:31,    186,    0.7,   10.5,   0.00,   0.00, 1004.9,   66.6, -999.0
09-11-2022, 13:13:41,    228,    0.9,   10.5,   0.00,   0.00, 1004.9,   66.6, -999.0
09-11-2022, 13:13:51,    255,    1.9,   10.6,   0.00,   0.00, 1004.9,   66.8, -999.0
09-11-2022, 13:14:01,    264,    1.9,   10.6,   0.00,   0.00, 1004.9,   66.7, -999.0
09-11-2022, 13:14:11,    229,    1.8,   10.6,   0.00,   0.00, 1004.9,   66.6, -999.0
09-11-2022, 13:14:21,    226,    1.0,   10.6,   0.00,   0.00, 1004.9,   66.7, -999.0
09-11-2022, 13:14:31,    242,    2.1,   10.6,   0.00,   0.00, 1004.9,   66.6, -999.0
09-11-2022, 13:14:41,    214,    3.2,   10.6,   0.00,   0.00, 1004.9,   66.6, -999.0
09-11-2022, 13:14:50,    242,    3.8,   10.6,   0.00,   0.00, 1004.9,   66.5, -999.0
09-11-2022, 13:15:01,    235,    2.4,   10.6,   0.00,   0.00, 1004.9,   66.6, -999.0
09-11-2022, 13:15:11,    237,    1.3,   10.6,   0.00,   0.00, 1004.9,   66.6, -999.0
09-11-2022, 13:15:20,    210,    1.8,   10.6,   0.00,   0.00, 1004.9,   66.7, -999.0
09-11-2022, 13:15:31,    217,    0.9,   10.6,   0.00,   0.00, 1004.9,   66.7, -999.0
09-11-2022, 13:15:41,    232,    0.6,   10.5,   0.00,   0.00, 1004.8,   66.8, -999.0
09-11-2022, 13:15:50,    231,    0.9,   10.6,   0.00,   0.00, 1004.9,   66.8, -999.0
09-11-2022, 13:16:00,    260,    2.7,   10.6,   0.00,   0.00, 1004.9,   66.8, -999.0
09-11-2022, 13:16:11,    253,    1.2,   10.6,   0.00,   0.00, 1004.9,   66.7, -999.0
09-11-2022, 13:16:20,    253,    0.7,   10.6,   0.00,   0.00, 1004.9,   66.7, -999.0
09-11-2022, 13:16:30,    245,    1.5,   10.7,   0.00,   0.00, 1005.0,   66.9, -999.0
09-11-2022, 13:16:40,    231,    1.2,   10.7,   0.00,   0.00, 1005.0,   66.8, -999.0
09-11-2022, 13:16:50,    204,    1.3,   10.7,   0.00,   0.00, 1005.0,   66.8, -999.0